MDT,Max TemperatureF,Mean TemperatureF,Min TemperatureF,Max Dew PointF,MeanDew PointF,Min DewpointF,Max Humidity, Mean Humidity, Min Humidity, Max Sea Level PressureIn, Mean Sea Level PressureIn, Min Sea Level PressureIn, Max VisibilityMiles, Mean VisibilityMiles, Min VisibilityMiles, Max Wind SpeedMPH, Mean Wind SpeedMPH, Max Gust SpeedMPH,PrecipitationIn, CloudCover, Events, WindDirDegrees
2013-3-1,44,34,24,29,25,19,95,73,37,30.27,30.24,30.19,10,10,2,18,7,25,0.00,2,,334
2013-3-2,59,45,31,37,32,26,92,68,35,30.23,30.12,30.00,10,10,10,21,7,26,0.00,2,,272
2013-3-3,66,48,31,37,32,29,93,61,28,29.99,29.71,29.57,10,10,10,26,8,34,0.00,1,,273
2013-3-4,44,34,23,32,18,7,78,52,27,30.19,29.91,29.62,10,10,3,32,16,39,0.01,2,,328
2013-3-5,41,30,20,16,10,5,75,48,24,30.32,30.26,30.19,10,10,10,21,13,29,0.00,0,,354
2013-3-6,48,34,20,27,21,14,85,65,38,30.25,30.07,29.91,10,10,10,21,9,26,0.00,0,,134
2013-3-7,56,39,22,30,26,20,93,72,35,30.04,29.96,29.89,10,10,5,9,3,,0.00,0,,103
2013-3-8,52,39,26,40,32,24,91,70,47,30.03,29.87,29.65,10,10,3,16,6,18,0.00,2,,74
2013-3-9,44,36,28,43,33,23,96,91,80,30.00,29.72,29.55,10,3,0,38,20,44,0.13,7,Fog-Rain-Snow-Thunderstorm,5
2013-3-10,31,20,10,22,15,8,90,71,51,30.12,30.06,30.00,10,9,1,32,20,39,0.03,0,,343
2013-3-11,44,27,10,34,22,8,90,77,54,30.12,29.95,29.90,10,10,10,24,6,31,0.00,4,,293
2013-3-12,42,34,25,29,20,14,86,58,32,30.29,30.22,30.12,10,10,10,30,13,33,0.00,2,,335
2013-3-13,63,42,23,38,29,18,83,62,28,30.27,30.17,30.10,10,10,10,13,4,16,0.00,0,,231
2013-3-14,71,54,37,36,33,29,81,49,22,30.23,30.13,30.01,10,10,10,14,7,20,0.00,0,,249
2013-3-15,77,57,37,39,31,21,81,48,13,30.00,29.87,29.77,10,10,10,21,10,33,0.00,0,,301
2013-3-16,46,40,32,32,29,25,90,68,49,30.06,29.99,29.92,10,10,7,17,8,21,0.00,3,,91
2013-3-17,54,42,30,38,30,20,95,73,33,29.95,29.73,29.53,10,9,2,29,13,43,0.01,7,Rain-Thunderstorm,167
2013-3-18,47,36,24,26,17,10,86,50,22,30.01,29.90,29.82,10,10,10,24,12,32,0.00,2,,323
2013-3-19,49,36,24,32,20,13,91,57,27,30.36,30.14,29.98,10,10,3,28,7,34,0.00,4,Rain-Snow,322
2013-3-20,52,32,13,19,15,9,88,52,26,30.38,30.11,29.81,10,10,10,18,6,25,0.00,2,,165
2013-3-21,45,35,25,36,24,18,92,63,39,29.80,29.72,29.63,10,10,3,17,11,22,0.04,5,Rain-Snow,150
2013-3-22,47,38,28,32,29,25,94,72,43,29.91,29.83,29.78,10,10,4,18,9,23,0.01,4,Rain-Snow,13
2013-3-23,33,27,21,32,21,14,96,82,68,30.17,30.05,29.90,10,5,0,26,14,31,0.02,6,Snow,13
2013-3-24,33,18,4,18,11,2,88,69,45,30.23,30.14,30.07,10,10,2,29,11,36,0.01,2,Snow,326
2013-3-25,33,22,11,15,11,7,85,66,40,30.31,30.27,30.23,10,10,10,16,10,21,0.00,1,,318
2013-3-26,42,26,10,29,19,7,91,70,39,30.25,30.11,30.00,10,10,10,16,3,23,0.00,1,,193
2013-3-27,57,42,27,33,27,20,90,63,25,30.13,30.07,30.01,10,10,7,6,1,,0.00,3,,36
2013-3-28,65,48,30,36,33,28,94,64,31,30.13,30.08,30.02,10,10,5,20,5,28,0.00,1,,180
2013-3-29,73,53,33,41,35,31,91,56,22,30.11,30.03,29.92,10,10,10,24,7,36,0.00,1,Rain-Thunderstorm,240
2013-3-30,63,50,36,41,35,32,90,57,33,30.14,30.05,29.98,10,10,10,20,9,25,0.00,2,Rain,337
2013-3-31,70,48,28,36,29,19,94,57,14,30.16,30.03,29.88,10,10,10,24,9,32,0.00,0,,280